Time,TemperatureF,DewpointF,PressureIn,WindDirection,WindDirectionDegrees,WindSpeedMPH,WindSpeedGustMPH,Humidity,HourlyPrecipIn,Conditions,Clouds,dailyrainin,SoftwareType,DateUTC
2013-10-14 00:10:00,51.1,48.0,30.00,NNW,337,0.0,-999.0,89,-99.99,,,0.00,Acu-Link.com,2013-10-14 07:10:00,
2013-10-14 00:26:00,50.4,47.6,29.99,NNW,337,0.0,-999.0,90,-99.99,,,0.00,Acu-Link.com,2013-10-14 07:26:00,
2013-10-14 00:42:00,50.9,48.1,30.00,NNW,337,0.0,-999.0,90,-99.99,,,0.00,Acu-Link.com,2013-10-14 07:42:00,
2013-10-14 00:57:00,50.7,47.9,29.99,NNW,337,0.0,-999.0,90,-99.99,,,0.00,Acu-Link.com,2013-10-14 07:57:00,
2013-10-14 01:13:00,50.5,48.0,30.00,NNW,337,0.0,-999.0,91,-99.99,,,0.00,Acu-Link.com,2013-10-14 08:13:00,
2013-10-14 01:28:00,50.5,48.0,30.00,NNW,337,2.2,-999.0,91,-99.99,,,0.00,Acu-Link.com,2013-10-14 08:28:00,
2013-10-14 01:43:00,50.7,48.2,30.00,NNW,337,1.1,-999.0,91,-99.99,,,0.00,Acu-Link.com,2013-10-14 08:43:00,
2013-10-14 01:58:00,50.9,48.4,30.00,NNW,337,0.0,-999.0,91,-99.99,,,0.00,Acu-Link.com,2013-10-14 08:58:00,
2013-10-14 02:14:00,50.2,47.7,30.01,NNW,337,0.0,-999.0,91,-99.99,,,0.00,Acu-Link.com,2013-10-14 09:14:00,
2013-10-14 02:29:00,49.8,47.3,30.00,NNW,337,0.0,-999.0,91,-99.99,,,0.00,Acu-Link.com,2013-10-14 09:29:00,
2013-10-14 02:44:00,48.6,46.7,30.00,NNW,337,0.0,-999.0,93,-99.99,,,0.00,Acu-Link.com,2013-10-14 09:44:00,
2013-10-14 02:59:00,48.6,46.7,30.00,NNW,337,0.0,-999.0,93,-99.99,,,0.00,Acu-Link.com,2013-10-14 09:59:00,
2013-10-14 03:14:00,48.0,46.1,29.99,NNW,337,0.0,-999.0,93,-99.99,,,0.00,Acu-Link.com,2013-10-14 10:14:00,
2013-10-14 03:29:00,47.7,45.8,29.99,NNW,337,0.0,-999.0,93,-99.99,,,0.00,Acu-Link.com,2013-10-14 10:29:00,
2013-10-14 03:45:00,47.7,45.8,29.99,NNW,337,0.0,-999.0,93,-99.99,,,0.00,Acu-Link.com,2013-10-14 10:45:00,
2013-10-14 04:00:00,47.5,45.6,29.99,NNW,337,0.0,-999.0,93,-99.99,,,0.00,Acu-Link.com,2013-10-14 11:00:00,
2013-10-14 04:15:00,46.8,44.9,29.99,NNW,337,0.0,-999.0,93,-99.99,,,0.00,Acu-Link.com,2013-10-14 11:15:00,
2013-10-14 04:30:00,46.4,44.5,29.99,NNW,337,0.0,-999.0,93,-99.99,,,0.00,Acu-Link.com,2013-10-14 11:30:00,
2013-10-14 04:45:00,46.8,44.9,29.99,NNW,337,0.0,-999.0,93,-99.99,,,0.00,Acu-Link.com,2013-10-14 11:45:00,
2013-10-14 05:01:00,46.4,44.5,29.99,NNW,337,0.0,-999.0,93,-99.99,,,0.00,Acu-Link.com,2013-10-14 12:01:00,
2013-10-14 05:16:00,46.2,44.6,29.99,NNW,337,0.0,-999.0,94,-99.99,,,0.00,Acu-Link.com,2013-10-14 12:16:00,
2013-10-14 05:31:00,45.9,44.3,30.00,NNW,337,0.0,-999.0,94,-99.99,,,0.00,Acu-Link.com,2013-10-14 12:31:00,
2013-10-14 05:46:00,45.9,44.3,30.00,NNW,337,0.0,-999.0,94,-99.99,,,0.00,Acu-Link.com,2013-10-14 12:46:00,
2013-10-14 06:02:00,45.7,44.1,30.00,NNW,337,0.0,-999.0,94,-99.99,,,0.00,Acu-Link.com,2013-10-14 13:02:00,
2013-10-14 06:17:00,46.0,44.4,30.00,NNW,337,1.1,-999.0,94,-99.99,,,0.00,Acu-Link.com,2013-10-14 13:17:00,
2013-10-14 06:32:00,45.5,43.9,30.00,NNW,337,1.1,-999.0,94,-99.99,,,0.00,Acu-Link.com,2013-10-14 13:32:00,
2013-10-14 06:47:00,45.1,43.5,30.00,NNW,337,0.0,-999.0,94,-99.99,,,0.00,Acu-Link.com,2013-10-14 13:47:00,
2013-10-14 07:02:00,44.8,43.2,30.00,NNW,337,2.2,-999.0,94,-99.99,,,0.00,Acu-Link.com,2013-10-14 14:02:00,
2013-10-14 07:18:00,45.1,43.5,30.00,NNW,337,1.7,-999.0,94,-99.99,,,0.00,Acu-Link.com,2013-10-14 14:18:00,
2013-10-14 07:33:00,45.3,44.0,30.00,NNW,337,1.7,-999.0,95,-99.99,,,0.00,Acu-Link.com,2013-10-14 14:33:00,
2013-10-14 07:48:00,46.0,44.6,30.00,NNW,337,1.7,-999.0,95,-99.99,,,0.00,Acu-Link.com,2013-10-14 14:48:00,
2013-10-14 08:03:00,47.5,46.1,30.00,NNW,337,0.0,-999.0,95,-99.99,,,0.00,Acu-Link.com,2013-10-14 15:03:00,
2013-10-14 08:18:00,50.2,48.8,30.01,NNW,337,1.7,-999.0,95,-99.99,,,0.00,Acu-Link.com,2013-10-14 15:18:00,
2013-10-14 08:34:00,54.5,53.1,30.01,NNW,337,0.0,-999.0,95,-99.99,,,0.00,Acu-Link.com,2013-10-14 15:34:00,
2013-10-14 08:49:00,58.1,56.4,30.00,NNW,337,2.2,-999.0,94,-99.99,,,0.00,Acu-Link.com,2013-10-14 15:49:00,
2013-10-14 09:04:00,62.2,59.5,30.01,NNW,337,1.7,-999.0,91,-99.99,,,0.00,Acu-Link.com,2013-10-14 16:04:00,
2013-10-14 09:19:00,64.9,60.9,30.00,NNW,337,2.2,-999.0,87,-99.99,,,0.00,Acu-Link.com,2013-10-14 16:19:00,
2013-10-14 09:34:00,72.3,66.5,30.00,NNW,337,1.1,-999.0,82,-99.99,,,0.00,Acu-Link.com,2013-10-14 16:34:00,
2013-10-14 09:50:00,76.3,68.5,29.99,WNW,292,4.2,-999.0,77,-99.99,,,0.00,Acu-Link.com,2013-10-14 16:50:00,
2013-10-14 10:05:00,78.6,68.4,29.99,NNE,22,2.2,-999.0,71,-99.99,,,0.00,Acu-Link.com,2013-10-14 17:05:00,
2013-10-14 10:20:00,80.1,68.1,29.99,ESE,112,3.2,-999.0,67,-99.99,,,0.00,Acu-Link.com,2013-10-14 17:20:00,
2013-10-14 10:35:00,81.7,67.9,29.98,SSW,202,1.7,-999.0,63,-99.99,,,0.00,Acu-Link.com,2013-10-14 17:35:00,
2013-10-14 10:50:00,82.0,66.2,29.99,NE,45,1.7,-999.0,59,-99.99,,,0.00,Acu-Link.com,2013-10-14 17:50:00,
2013-10-14 11:06:00,82.9,65.6,29.99,SW,225,2.7,-999.0,56,-99.99,,,0.00,Acu-Link.com,2013-10-14 18:06:00,
2013-10-14 11:21:00,83.7,64.7,29.98,SE,135,6.3,-999.0,53,-99.99,,,0.00,Acu-Link.com,2013-10-14 18:21:00,
2013-10-14 11:36:00,84.4,63.7,29.98,SSW,202,3.7,-999.0,50,-99.99,,,0.00,Acu-Link.com,2013-10-14 18:36:00,
2013-10-14 11:51:00,84.6,62.7,29.96,South,180,3.7,-999.0,48,-99.99,,,0.00,Acu-Link.com,2013-10-14 18:51:00,
2013-10-14 12:07:00,86.2,63.0,29.96,NNW,337,3.2,-999.0,46,-99.99,,,0.00,Acu-Link.com,2013-10-14 19:07:00,
2013-10-14 12:22:00,86.4,62.5,29.96,NNE,22,3.7,-999.0,45,-99.99,,,0.00,Acu-Link.com,2013-10-14 19:22:00,
2013-10-14 12:37:00,87.3,62.0,29.95,WNW,292,2.2,-999.0,43,-99.99,,,0.00,Acu-Link.com,2013-10-14 19:37:00,
2013-10-14 12:52:00,87.1,61.2,29.94,ENE,67,2.7,-999.0,42,-99.99,,,0.00,Acu-Link.com,2013-10-14 19:52:00,
2013-10-14 13:07:00,87.4,60.8,29.94,NNW,337,2.2,-999.0,41,-99.99,,,0.00,Acu-Link.com,2013-10-14 20:07:00,
2013-10-14 13:23:00,88.5,61.1,29.93,NE,45,3.7,-999.0,40,-99.99,,,0.00,Acu-Link.com,2013-10-14 20:23:00,
2013-10-14 13:38:00,88.2,60.1,29.92,South,180,3.2,-999.0,39,-99.99,,,0.00,Acu-Link.com,2013-10-14 20:38:00,
2013-10-14 13:53:00,88.3,59.4,29.92,NNW,337,2.2,-999.0,38,-99.99,,,0.00,Acu-Link.com,2013-10-14 20:53:00,
2013-10-14 14:08:00,88.5,58.9,29.92,NE,45,2.2,-999.0,37,-99.99,,,0.00,Acu-Link.com,2013-10-14 21:08:00,
2013-10-14 14:23:00,88.0,57.7,29.91,NNE,22,4.2,-999.0,36,-99.99,,,0.00,Acu-Link.com,2013-10-14 21:23:00,
2013-10-14 14:39:00,87.8,57.5,29.89,ENE,67,5.3,-999.0,36,-99.99,,,0.00,Acu-Link.com,2013-10-14 21:39:00,
2013-10-14 14:54:00,88.2,57.1,29.89,ENE,67,3.2,-999.0,35,-99.99,,,0.00,Acu-Link.com,2013-10-14 21:54:00,
2013-10-14 15:09:00,87.1,55.3,29.89,SE,135,3.7,-999.0,34,-99.99,,,0.00,Acu-Link.com,2013-10-14 22:09:00,
2013-10-14 15:24:00,77.9,50.2,29.89,South,180,9.4,-999.0,38,-99.99,,,0.00,Acu-Link.com,2013-10-14 22:24:00,
2013-10-14 15:39:00,77.0,52.8,29.89,WSW,247,8.9,-999.0,43,-99.99,,,0.00,Acu-Link.com,2013-10-14 22:39:00,
2013-10-14 15:55:00,75.9,53.6,29.88,South,180,8.3,-999.0,46,-99.99,,,0.00,Acu-Link.com,2013-10-14 22:55:00,
2013-10-14 16:10:00,75.0,54.5,29.89,SSW,202,7.3,-999.0,49,-99.99,,,0.00,Acu-Link.com,2013-10-14 23:10:00,
2013-10-14 16:25:00,74.3,55.0,29.88,SW,225,6.3,-999.0,51,-99.99,,,0.00,Acu-Link.com,2013-10-14 23:25:00,
2013-10-14 16:40:00,73.9,55.2,29.87,SSW,202,4.7,-999.0,52,-99.99,,,0.00,Acu-Link.com,2013-10-14 23:40:00,
2013-10-14 16:56:00,73.9,55.2,29.85,ESE,112,6.8,-999.0,52,-99.99,,,0.00,Acu-Link.com,2013-10-14 23:56:00,
2013-10-14 17:11:00,72.7,54.0,29.86,South,180,4.7,-999.0,52,-99.99,,,0.00,Acu-Link.com,2013-10-15 00:11:00,
2013-10-14 17:26:00,71.8,53.2,29.86,SSW,202,2.7,-999.0,52,-99.99,,,0.00,Acu-Link.com,2013-10-15 00:26:00,
2013-10-14 17:41:00,70.5,52.5,29.87,SW,225,1.7,-999.0,53,-99.99,,,0.00,Acu-Link.com,2013-10-15 00:41:00,
2013-10-14 17:56:00,70.0,53.1,29.86,SW,225,1.1,-999.0,55,-99.99,,,0.00,Acu-Link.com,2013-10-15 00:56:00,
2013-10-14 18:12:00,68.4,52.6,29.87,SW,225,2.7,-999.0,57,-99.99,,,0.00,Acu-Link.com,2013-10-15 01:12:00,
2013-10-14 18:27:00,66.6,51.8,29.87,SW,225,0.0,-999.0,59,-99.99,,,0.00,Acu-Link.com,2013-10-15 01:27:00,
2013-10-14 18:42:00,65.7,51.9,29.88,SW,225,0.0,-999.0,61,-99.99,,,0.00,Acu-Link.com,2013-10-15 01:42:00,
2013-10-14 18:57:00,64.4,51.5,29.88,SW,225,0.0,-999.0,63,-99.99,,,0.00,Acu-Link.com,2013-10-15 01:57:00,
2013-10-14 19:12:00,63.3,51.3,29.89,SW,225,0.0,-999.0,65,-99.99,,,0.00,Acu-Link.com,2013-10-15 02:12:00,
2013-10-14 19:28:00,61.7,50.6,29.90,SW,225,0.0,-999.0,67,-99.99,,,0.00,Acu-Link.com,2013-10-15 02:28:00,
2013-10-14 19:43:00,60.8,50.6,29.90,SW,225,1.7,-999.0,69,-99.99,,,0.00,Acu-Link.com,2013-10-15 02:43:00,
2013-10-14 19:58:00,59.9,50.1,29.91,SW,225,0.0,-999.0,70,-99.99,,,0.00,Acu-Link.com,2013-10-15 02:58:00,
2013-10-14 20:13:00,58.8,49.4,29.91,SW,225,0.0,-999.0,71,-99.99,,,0.00,Acu-Link.com,2013-10-15 03:13:00,
2013-10-14 20:28:00,57.9,49.3,29.91,SW,225,0.0,-999.0,73,-99.99,,,0.00,Acu-Link.com,2013-10-15 03:28:00,
2013-10-14 20:44:00,57.0,48.4,29.91,SW,225,0.0,-999.0,73,-99.99,,,0.00,Acu-Link.com,2013-10-15 03:44:00,
2013-10-14 20:59:00,55.6,47.8,29.92,SW,225,0.0,-999.0,75,-99.99,,,0.00,Acu-Link.com,2013-10-15 03:59:00,
2013-10-14 21:14:00,55.0,47.6,29.92,SW,225,2.2,-999.0,76,-99.99,,,0.00,Acu-Link.com,2013-10-15 04:14:00,
2013-10-14 21:29:00,54.9,47.8,29.91,SW,225,0.0,-999.0,77,-99.99,,,0.00,Acu-Link.com,2013-10-15 04:29:00,
2013-10-14 21:44:00,54.0,47.3,29.90,SW,225,0.0,-999.0,78,-99.99,,,0.00,Acu-Link.com,2013-10-15 04:44:00,
2013-10-14 22:00:00,53.6,47.2,29.89,SW,225,0.0,-999.0,79,-99.99,,,0.00,Acu-Link.com,2013-10-15 05:00:00,
2013-10-14 22:15:00,53.1,47.1,29.89,SW,225,0.0,-999.0,80,-99.99,,,0.00,Acu-Link.com,2013-10-15 05:15:00,
2013-10-14 22:32:00,52.9,46.9,29.90,SW,225,0.0,-999.0,80,-99.99,,,0.00,Acu-Link.com,2013-10-15 05:32:00,
2013-10-14 22:47:00,52.7,47.0,29.91,SW,225,0.0,-999.0,81,-99.99,,,0.00,Acu-Link.com,2013-10-15 05:47:00,
2013-10-14 23:02:00,52.2,46.9,29.91,SW,225,0.0,-999.0,82,-99.99,,,0.00,Acu-Link.com,2013-10-15 06:02:00,
2013-10-14 23:18:00,52.2,46.9,29.91,SW,225,0.0,-999.0,82,-99.99,,,0.00,Acu-Link.com,2013-10-15 06:18:00,
2013-10-14 23:33:00,51.8,46.5,29.92,SW,225,0.0,-999.0,82,-99.99,,,0.00,Acu-Link.com,2013-10-15 06:33:00,
2013-10-14 23:49:00,51.6,46.6,29.92,SW,225,0.0,-999.0,83,-99.99,,,0.00,Acu-Link.com,2013-10-15 06:49:00,